Temp
73 74 74 75 75 76 75 76 77 76 76 76 76 76 75 75 75 75 75 74 72 71
73 73 75 75 76 76 76 78 77 77 77 76 76 76 75 75 74 75 74 74 73 73
73 74 75 76 76 75 77 77 78 77 77 75 76 75 75 75 75 74 74 74 72 72
74 74 75 75 76 76 77 77 77 77 76 76 76 76 74 74 75 74 72 72 72 71
75 75 75 75 76 76 76 77 76 76 76 76 77 77 75 75 75 74 71 71 71 70
75 75 75 76 76 76 75 75 77 76 76 76 77 77 77 75 74 75 74 72 71 71
75 75 76 76 76 76 76 76 76 76 76 76 77 77 77 77 75 73 75 73 72 72
76 77 76 76 76 76 76 77 76 76 76 77 78 79 77 76 76 75 73 73 73 73
72 71 72 72 74 75 76 76 76 75 76 76 78 74 72 75 75 74 74 71 72 72
70 69 68 70 70 71 72 73 72 73 73 74 75 71 71 72 76 76 74 73 72 72
68 68 68 68 68 69 70 71 71 71 72 74 74 68 67 70 75 74 73 73 71 71
71 70 69 69 68 68 68 69 69 70 71 70 70 62 63 65 72 72 71 71 71 70
69 70 70 70 68 67 67 67 68 68 68 66 67 62 61 64 70 71 69 68 70 67
69 68 69 69 68 67 66 66 65 66 66 67 66 67 61 62 68 70 70 70 69 69
MSLP
1016.78 1017.05 1017.18 1017.33 1017.57 1017.67 1017.69 1017.62 1017.67 1017.96 1018.16 1018.21 1018.43 1018.60 1018.84 1019.15 1019.40 1019.66 1019.98 1020.22 1020.39 1020.65
1016.45 1016.78 1017.02 1017.10 1017.34 1017.53 1017.49 1017.31 1017.50 1017.68 1017.99 1017.99 1018.19 1018.36 1018.64 1019.01 1019.28 1019.53 1019.80 1019.87 1020.10 1020.27
1015.94 1016.24 1016.53 1016.88 1017.05 1017.18 1017.16 1017.10 1017.19 1017.51 1017.80 1018.14 1018.06 1018.21 1018.60 1018.94 1019.10 1019.27 1019.59 1019.63 1019.70 1019.87
1015.29 1015.72 1016.09 1016.36 1016.57 1016.80 1016.89 1016.86 1016.90 1017.10 1017.33 1017.58 1017.78 1017.97 1018.40 1018.63 1019.03 1019.41 1019.29 1019.35 1019.46 1019.66
1014.59 1015.03 1015.39 1015.73 1015.99 1016.38 1016.51 1016.54 1016.61 1016.85 1017.02 1017.08 1017.26 1017.51 1017.89 1018.12 1018.27 1018.70 1018.88 1018.92 1019.17 1019.18
1014.12 1014.66 1014.99 1015.21 1015.49 1015.78 1016.05 1016.16 1016.36 1016.55 1016.69 1016.79 1016.85 1017.08 1017.28 1017.50 1017.82 1017.97 1018.07 1018.40 1018.50 1018.43
1013.74 1014.40 1014.63 1014.97 1015.25 1015.48 1015.73 1015.75 1015.79 1015.86 1015.95 1016.09 1016.28 1016.53 1016.65 1016.87 1017.05 1017.47 1017.74 1017.78 1017.99 1018.12
1013.42 1013.95 1014.55 1015.09 1015.43 1015.60 1015.34 1015.05 1015.13 1015.46 1015.50 1015.55 1015.69 1015.79 1016.07 1016.40 1016.68 1016.76 1017.04 1017.17 1017.49 1017.67
1013.06 1013.56 1014.04 1013.96 1014.33 1014.82 1015.05 1015.06 1014.86 1014.76 1014.95 1015.17 1015.02 1014.83 1015.19 1015.58 1015.90 1015.89 1016.29 1016.60 1016.77 1017.05
1012.75 1012.53 1012.82 1013.17 1013.23 1014.22 1015.09 1014.81 1014.94 1015.24 1015.21 1015.14 1014.75 1014.24 1014.16 1014.33 1014.69 1014.69 1015.04 1015.32 1015.60 1016.07
1013.49 1013.50 1013.31 1012.45 1013.21 1014.21 1015.03 1015.01 1014.41 1013.20 1014.70 1015.53 1014.33 1013.80 1013.84 1013.89 1014.07 1014.01 1013.86 1013.97 1014.30 1014.90
1013.20 1013.19 1013.22 1013.16 1013.73 1014.17 1014.63 1014.53 1013.88 1014.13 1014.80 1014.89 1014.69 1013.96 1013.55 1013.63 1013.66 1013.70 1013.99 1014.32 1014.63 1014.81
1013.23 1013.29 1013.43 1013.60 1013.86 1014.16 1014.65 1014.77 1014.48 1014.79 1014.93 1014.85 1014.26 1013.05 1013.49 1013.62 1013.62 1013.47 1013.84 1014.13 1014.26 1014.29
1013.10 1013.09 1013.26 1013.58 1013.87 1014.10 1014.17 1014.15 1014.06 1013.74 1013.40 1013.12 1012.84 1012.87 1013.37 1013.53 1013.57 1013.34 1013.34 1013.65 1013.90 1014.24
Wind_Speed
7 4 4 5 4 3 4 4 5 5 5 5 5 4 4 3 3 3 2 4 3 2
6 6 6 6 4 3 3 4 4 6 6 6 5 5 5 3 4 3 3 3 3 3
8 7 6 5 6 6 5 5 5 6 6 5 5 5 5 4 4 5 3 4 5 3
8 7 6 7 7 6 4 5 6 6 6 7 8 7 6 6 5 5 5 3 5 5
8 8 8 8 8 5 6 5 6 5 5 7 9 8 8 8 7 7 8 7 6 6
6 6 7 6 5 5 6 7 6 5 6 7 8 8 9 9 8 9 9 8 10 9
6 4 4 3 5 5 5 7 8 9 8 8 7 8 9 9 9 9 8 9 10 8
6 5 2 2 4 5 7 9 9 8 8 8 7 7 9 9 9 10 9 9 8 9
9 8 5 5 1 4 8 9 7 8 9 8 8 11 13 11 9 11 10 10 10 11
8 8 9 6 5 6 8 7 5 3 6 9 10 14 16 16 12 11 11 12 12 11
4 6 7 9 6 3 4 6 6 4 16 10 10 8 9 13 11 10 11 13 13 12
3 4 4 4 4 1 1 6 3 3 5 6 6 4 4 2 7 7 5 3 5 7
4 5 4 3 3 3 3 4 2 5 6 9 7 4 3 2 3 5 5 5 9 15
3 3 3 3 1 3 3 3 5 5 4 5 4 4 6 6 4 5 5 5 5 4
Wind_Direction
211 209 212 213 211 228 214 203 179 196 206 206 195 196 182 183 198 193 187 163 161 149
206 211 215 223 212 238 235 217 195 202 208 207 198 193 182 201 209 197 188 182 159 183
204 208 208 216 222 219 228 221 195 203 216 207 206 199 183 202 211 191 183 182 180 183
200 195 201 214 225 225 224 222 218 207 206 205 206 202 188 208 211 201 196 176 176 183
201 189 200 213 224 211 233 238 236 226 214 212 208 202 199 208 204 194 203 186 184 189
191 188 217 224 206 196 212 232 242 245 230 227 220 204 209 203 212 217 206 195 196 195
182 203 207 212 213 207 217 235 234 232 236 228 228 223 221 213 204 221 214 209 209 193
151 158 138 348 309 269 229 232 229 231 231 229 225 227 226 216 208 219 216 213 211 201
123 119 121 119 35 296 267 260 238 221 236 236 237 223 214 220 222 216 210 210 213 214
161 172 153 162 69 359 325 285 320 317 279 256 246 232 222 222 228 215 205 198 199 208
49 11 357 31 80 84 269 269 247 80 295 283 277 267 253 242 239 233 214 206 195 189
35 16 6 16 344 29 302 289 351 327 232 277 287 6 47 323 241 234 233 201 162 164
210 206 200 219 247 204 189 232 249 244 238 246 256 101 87 83 267 198 176 168 187 203
328 306 275 277 229 240 240 249 253 265 267 284 289 291 250 207 223 221 198 197 211 222